Location: Mount Kobau Star Party
(49.1167°N, 119.7333°W)
Time: 11:11:22
(UTC-07:00)

ARIANE 6 FM1 Upper Stage - Pass Details

Date: 11 April 2026
Orbit: 526 x 601 km, 62.0° (Epoch: 18 May)

Event Time Altitude Azimuth Distance (km) Brightness Sun altitude
Rises 22:33:58 0° 270° (W) 2,710 6.7 -24.0°
Reaches altitude 10° 22:36:39 10° 287° (WNW) 1,805 6.0 -24.2°
Maximum altitude 22:39:43 20° 336° (NNW) 1,265 5.2 -24.6°
Drops below altitude 10° 22:42:46 10° 26° (NNE) 1,786 5.5 -24.9°
Sets 22:45:25 0° 44° (NE) 2,671 6.2 -25.1°
